GW5705 Weather Reports


Display with metric or nautical units.
time (UTC)temp
F
wind
direction
speed
MPH
gust
MPH
rain 1hr
in
rain 24hr
in
rain mn
in
humidity
%
barometer
mb
20260504141024 51 305 3.0 11.0 0.00 0.00 0.00 49 1018.7
20260504081021 44 284 4.0 9.0 0.00 0.00 0.00 42 1019.1
20260504050022 43 63 1.0 3.0 0.00 0.00 0.00 40 1019.6
20260504045023 43 333 0.0 3.0 0.00 0.00 0.00 42 1019.5
20260504044026 42 180 0.0 2.0 0.00 0.00 0.00 42 1019.5
20260504043023 43 180 0.0 2.0 0.00 0.00 0.00 41 1019.5
20260504042023 43 116 0.0 2.0 0.00 0.00 0.00 41 1019.6
20260504041022 43 74 0.0 2.0 0.00 0.00 0.00 41 1019.5
20260504040022 44 298 3.0 6.0 0.00 0.00 0.00 40 1019.4
20260504035021 44 275 3.0 5.0 0.00 0.00 0.00 40 1019.4
20260504034021 44 300 2.0 4.0 0.00 0.00 0.00 41 1019.3
20260504033022 44 251 2.0 3.0 0.00 0.00 0.00 40 1019.4
20260504032021 44 265 2.0 3.0 0.00 0.00 0.00 41 1019.5
20260504031024 44 255 2.0 2.0 0.00 0.00 0.00 41 1019.5
20260504030022 44 239 3.0 4.0 0.00 0.00 0.00 42 1019.4
20260504025022 44 229 2.0 3.0 0.00 0.00 0.00 42 1019.4
20260504024024 44 219 2.0 4.0 0.00 0.00 0.00 41 1019.5
20260504023021 44 214 3.0 4.0 0.00 0.00 0.00 42 1019.6
20260504022022 44 208 2.0 4.0 0.00 0.00 0.00 43 1019.4
20260504021023 43 204 2.0 6.0 0.00 0.00 0.00 44 1019.4
20260504020022 43 174 3.0 4.0 0.00 0.00 0.00 44 1019.5
20260504015021 43 182 3.0 5.0 0.00 0.00 0.00 41 1019.4
20260504014022 43 161 2.0 4.0 0.00 0.00 0.00 39 1019.4
20260504013023 44 202 3.0 5.0 0.00 0.00 0.00 37 1019.2
20260504012021 45 204 4.0 5.0 0.00 0.00 0.00 35 1019.0
20260504011022 44 240 2.0 3.0 0.00 0.00 0.00 35 1019.0
20260504010021 44 232 2.0 3.0 0.00 0.00 0.00 35 1019.1
20260504005022 44 258 2.0 3.0 0.00 0.00 0.00 37 1019.0
20260504004021 44 270 3.0 4.0 0.00 0.00 0.00 36 1018.9
20260504003022 44 273 3.0 4.0 0.00 0.00 0.00 37 1018.9
20260504002021 44 277 3.0 3.0 0.00 0.00 0.00 37 1018.9
20260504001021 44 297 2.0 3.0 0.00 0.00 0.00 37 1018.9
20260504000022 45 288 2.0 3.0 0.00 0.00 0.00 37 1018.9
20260503235023 46 312 0.0 2.0 0.00 0.00 0.00 36 1018.8
20260503234022 46 286 2.0 6.0 0.00 0.00 0.00 35 1018.8
20260503233021 47 262 2.0 4.0 0.00 0.00 0.00 33 1018.8
20260503232021 48 297 3.0 5.0 0.00 0.00 0.00 32 1018.7
20260503231022 48 275 3.0 9.0 0.00 0.00 0.00 34 1018.6
20260503230021 48 280 3.0 7.0 0.00 0.00 0.00 33 1018.6
20260503225023 48 281 5.0 11.0 0.00 0.00 0.00 32 1018.5
20260503224022 48 290 5.0 8.0 0.00 0.00 0.00 32 1018.5
20260503223021 48 285 6.0 9.0 0.00 0.00 0.00 31 1018.3
20260503222022 49 271 2.0 10.0 0.00 0.00 0.00 31 1018.3
20260503221024 49 285 5.0 7.0 0.00 0.00 0.00 32 1018.5
20260503220024 51 54 1.0 9.0 0.00 0.00 0.00 31 1018.4
20260503215022 49 287 6.0 14.0 0.00 0.00 0.00 31 1018.4
20260503214021 50 287 5.0 9.0 0.00 0.00 0.00 30 1018.4
20260503213022 50 291 4.0 13.0 0.00 0.00 0.00 31 1018.3
20260503212023 49 294 6.0 10.0 0.00 0.00 0.00 29 1018.3
20260503211024 50 278 5.0 14.0 0.00 0.00 0.00 30 1018.4
20260503210021 49 315 6.0 10.0 0.00 0.00 0.00 33 1018.5
20260503205026 51 288 4.0 11.0 0.00 0.00 0.00 32 1018.6
20260503204021 52 278 3.0 10.0 0.00 0.00 0.00 31 1018.3
20260503203022 49 342 3.0 12.0 0.00 0.00 0.00 32 1018.4
20260503202021 52 284 3.0 13.0 0.00 0.00 0.00 32 1018.6
20260503201022 50 283 5.0 14.0 0.00 0.00 0.00 31 1018.5
20260503200021 51 243 3.0 4.0 0.00 0.00 0.00 30 1018.7
20260503195021 51 227 2.0 7.0 0.00 0.00 0.00 32 1018.8
20260503194022 50 268 3.0 7.0 0.00 0.00 0.00 34 1018.8
20260503193021 49 284 4.0 9.0 0.00 0.00 0.00 34 1018.8
20260503192024 50 283 4.0 11.0 0.00 0.00 0.00 34 1019.0
20260503191021 51 226 2.0 11.0 0.00 0.00 0.00 33 1019.2
20260503190022 51 282 2.0 8.0 0.00 0.00 0.00 32 1019.4
20260503185021 51 287 4.0 7.0 0.00 0.00 0.00 34 1019.3
20260503184021 48 337 4.0 10.0 0.00 0.00 0.00 36 1019.5
20260503183022 46 306 6.0 14.0 0.00 0.00 0.00 36 1019.5
20260503182021 48 332 4.0 13.0 0.00 0.00 0.00 38 1019.3
20260503181024 49 47 4.0 7.0 0.00 0.00 0.00 36 1019.3
20260503180024 49 9 4.0 10.0 0.00 0.00 0.00 35 1019.3
20260503175021 49 285 5.0 12.0 0.00 0.00 0.00 35 1019.3
20260503174025 48 73 2.0 7.0 0.00 0.00 0.00 39 1019.3
20260503173022 47 44 4.0 7.0 0.00 0.00 0.00 39 1019.4
20260503172022 49 29 3.0 6.0 0.00 0.00 0.00 38 1019.4
20260503171024 48 135 2.0 7.0 0.00 0.00 0.00 37 1019.5